"Pseudo-MPEC" for JumF1Il

Created 2025 Feb 7 4:31:12 UT using Find_Orb

Click here for an explanation of pseudo-MPECs

 
 Astrometry: 
     JumF1Il*!C2025 02 03.21493 11 09 17.16 -24 34 30.8    ~24Jl 22.9 rXNEOCPW84
     JumF1Il !C2025 02 03.21668 11 09 17.41 -24 34 34.5    ~24Jl 23.0 rXNEOCPW84
     JumF1Il !C2025 02 03.21844 11 09 17.63 -24 34 37.5    ~24Jl 22.9 rXNEOCPW84
     JumF1Il !C2025 02 03.22019 11 09 17.88 -24 34 41.0    ~24Jl 22.7 rXNEOCPW84
     JumF1Il !C2025 02 03.22370 11 09 18.35 -24 34 47.6    ~24Jl 22.8 rXNEOCPW84
     JumF1Il !C2025 02 03.22544 11 09 18.60 -24 34 51.1    ~24Jl 22.8 rXNEOCPW84
     JumF1Il !C2025 02 03.22895 11 09 19.09 -24 34 57.9    ~24LH 23.4 iXNEOCPW84
     JumF1Il !C2025 02 03.23949 11 09 20.55 -24 35 18.2    ~24LH 22.9 iXNEOCPW84
     JumF1Il !C2025 02 03.24302 11 09 21.04 -24 35 25.1    ~24LH 22.8 iXNEOCPW84
     JumF1Il !C2025 02 03.24652 11 09 21.49 -24 35 31.3    ~24LH 22.9 iXNEOCPW84

Station data:
(W84) Cerro Tololo-DECam  (S30.169594 W70.806420)  Chile.  Observer F. Valdes.
    Measurer S. Deen. 4.0-m reflector + CCD.

Orbital elements:  JumF1Il
   Perihelion 2025 Mar 19.31316 +/- 29.6 TT =  7:30:57 (JD 2460753.81316)
Epoch 2025 Feb  3.0 TT = JDT 2460709.5   Earth MOID: 0.0986      AutoNEOCP
M 335.20407603 +/- 34               (J2000 ecliptic)
n   0.55956112 +/- 0.464            Peri.  332.89804 +/- 90
a   1.45849303 +/- 0.807            Node   209.85674 +/- 48
e   0.2525780 +/- 0.237             Incl.    5.79199 +/- 21
P   1.761/643.349d         H 24.35  G  0.15   U 12.2  SR
q 1.09010967 +/- 0.366    Q 1.82687639 +/- 55.2
From 10 observations 2025 Feb. 3 (45.5 min); mean residual 0".15
Residuals in arcseconds: 
250203 W84  .08+  .06+    250203 W84  .21-  .17+    250203 W84  .21+  .24-    
250203 W84  .19+  .26-    250203 W84  .07-  .01+    250203 W84  .21-  .26+    
250203 W84  .13-  .13+    250203 W84  .01+  .04-    
250203 W84  .01-  .01+    250203 W84  .14+  .10-    

Ephemerides (geocentric):
Date (UTC) HH   RA             Dec           delta  r     elong  mag " sig PA
---- --------  ------------   ------------  ------ ------ -----  --- --------
2025 02 07 05  11 19 43.224   -26 38 45.01  .21944 1.1381 129.3 23.0  51d 107
2025 02 07 06  11 19 50.011   -26 40 01.56  .21930 1.1380 129.3 23.0  52d 107
2025 02 07 07  11 19 56.803   -26 41 18.09  .21916 1.1380 129.3 23.0  52d 107
2025 02 07 08  11 20 03.601   -26 42 34.58  .21902 1.1379 129.4 23.0  52d 106
2025 02 07 09  11 20 10.404   -26 43 51.05  .21888 1.1378 129.4 23.0  53d 106
2025 02 07 10  11 20 17.212   -26 45 07.50  .21874 1.1377 129.4 23.0  53d 106
2025 02 07 11  11 20 24.026   -26 46 23.91  .21860 1.1376 129.4 23.0  54d 106
2025 02 07 12  11 20 30.845   -26 47 40.29  .21846 1.1375 129.4 23.0  54d 106
2025 02 07 13  11 20 37.670   -26 48 56.65  .21832 1.1374 129.4 23.0  54d 106
2025 02 07 14  11 20 44.500   -26 50 12.98  .21818 1.1373 129.4 23.0  55d 106
2025 02 07 15  11 20 51.335   -26 51 29.28  .21804 1.1372 129.4 23.0  55d 106
2025 02 07 16  11 20 58.176   -26 52 45.55  .21790 1.1371 129.4 23.0  55d 107
2025 02 07 17  11 21 05.022   -26 54 01.79  .21776 1.1370 129.4 23.0  56d 107
2025 02 07 18  11 21 11.873   -26 55 18.01  .21762 1.1369 129.4 23.0  56d 107
2025 02 07 19  11 21 18.730   -26 56 34.19  .21748 1.1368 129.4 23.0  56d 107
2025 02 07 20  11 21 25.593   -26 57 50.35  .21735 1.1367 129.4 23.0  56d 107
2025 02 07 21  11 21 32.461   -26 59 06.47  .21721 1.1366 129.4 23.0  56d 107
2025 02 07 22  11 21 39.334   -27 00 22.57  .21707 1.1365 129.4 23.0  57d 107
2025 02 07 23  11 21 46.213   -27 01 38.64  .21693 1.1364 129.4 23.0  57d 107
2025 02 08 00  11 21 53.098   -27 02 54.67  .21679 1.1364 129.4 23.0  57d 107
2025 02 08 01  11 21 59.988   -27 04 10.68  .21665 1.1363 129.4 23.0  57d 107
2025 02 08 02  11 22 06.883   -27 05 26.66  .21651 1.1362 129.4 22.9  57d 107
2025 02 08 03  11 22 13.784   -27 06 42.61  .21638 1.1361 129.4 22.9  57d 107
2025 02 08 04  11 22 20.690   -27 07 58.52  .21624 1.1360 129.4 22.9  58d 107
2025 02 08 05  11 22 27.602   -27 09 14.41  .21610 1.1359 129.4 22.9  58d 107
2025 02 08 06  11 22 34.520   -27 10 30.27  .21596 1.1358 129.4 22.9  58d 107
2025 02 08 07  11 22 41.443   -27 11 46.10  .21583 1.1357 129.4 22.9  58d 107
2025 02 08 08  11 22 48.371   -27 13 01.89  .21569 1.1356 129.4 22.9  58d 107
2025 02 08 09  11 22 55.306   -27 14 17.66  .21555 1.1355 129.4 22.9  58d 107
2025 02 08 10  11 23 02.245   -27 15 33.39  .21541 1.1354 129.4 22.9  58d 107
2025 02 08 11  11 23 09.191   -27 16 49.10  .21528 1.1353 129.4 22.9  58d 107
2025 02 08 12  11 23 16.142   -27 18 04.77  .21514 1.1352 129.4 22.9  59d 107
2025 02 08 13  11 23 23.098   -27 19 20.41  .21500 1.1351 129.4 22.9  59d 107
2025 02 08 14  11 23 30.060   -27 20 36.02  .21487 1.1351 129.4 22.9  59d 107
2025 02 08 15  11 23 37.028   -27 21 51.60  .21473 1.1350 129.4 22.9  59d 107
2025 02 08 16  11 23 44.002   -27 23 07.15  .21459 1.1349 129.4 22.9  59d 107
2025 02 08 17  11 23 50.981   -27 24 22.66  .21446 1.1348 129.4 22.9  59d 108
2025 02 08 18  11 23 57.965   -27 25 38.15  .21432 1.1347 129.4 22.9  59d 108
2025 02 08 19  11 24 04.956   -27 26 53.60  .21418 1.1346 129.4 22.9  59d 108
2025 02 08 20  11 24 11.952   -27 28 09.02  .21405 1.1345 129.4 22.9  59d 108
2025 02 08 21  11 24 18.953   -27 29 24.41  .21391 1.1344 129.4 22.9  59d 108
2025 02 08 22  11 24 25.961   -27 30 39.76  .21377 1.1343 129.4 22.9  59d 108
2025 02 08 23  11 24 32.974   -27 31 55.09  .21364 1.1342 129.4 22.9  59d 108
2025 02 09 00  11 24 39.992   -27 33 10.38  .21350 1.1341 129.4 22.9  59d 108
2025 02 09 01  11 24 47.017   -27 34 25.64  .21337 1.1340 129.4 22.9  60d 108
2025 02 09 02  11 24 54.047   -27 35 40.86  .21323 1.1340 129.4 22.9  60d 108
2025 02 09 03  11 25 01.083   -27 36 56.05  .21310 1.1339 129.4 22.9  60d 108
2025 02 09 04  11 25 08.125   -27 38 11.21  .21296 1.1338 129.4 22.9  60d 108